Terug naar catalogus

STARLINK-36113

ActiefCommunicatieVLEO
NORAD 66982·PAYLOAD·🇺🇸 United States

Gelanceerd Dec 8, 2025 vanaf Cape Canaveral Space Force Station

Loading…

Volgende Passages (komende 24 uur)

TLE

VersSource: CelesTrak SupGP

Epoch: Sep 15, 2026, 03:32 UTC

1 66982C 25288Z   26258.14770833  .00001168  00000+0  42313-4 0  2582
2 66982  43.0010  33.1254 0001579 263.5459 208.9830 15.27579843    17

Volg STARLINK-36113 in realtime met AllMySat

Download on the App Store